This demonstration page uses our WeatherBlox Daily Observations layout. Learn more.

Left ArrowRight Arrow

Hourly Observations for July 30, 2019

Temp ( °F °C ) Dew Point ( °F °C ) Humidity (%) Winds ( mph kmh ) Pressure ( in mb ) Visibility ( mi km ) Precip ( " mm )
12:53 am 00:53 Partly Cloudy 71 21.7 69 20.6 94 94 N N/A 29.98 1015 10 16 0.00 0.00
1:53 am 01:53 Cloudy with Light Rain 71 21.7 69 20.6 94 94 N N/A 29.96 1015 10 16 0.00 0.00
2:53 am 02:53 Cloudy 72 22.2 69 20.6 91 91 N N/A 29.96 1015 10 16 0.00 0.00
3:53 am 03:53 Clear 71 21.7 69 20.6 94 94 N N/A 29.96 1015 10 16 N/A
4:53 am 04:53 Partly Cloudy 69 20.6 68 20 96 96 N N/A 29.96 1015 10 16 N/A
5:04 am 05:04 Mostly Cloudy 69 20.6 68 20 96 96 WNW 5 7 29.97 1015 10 16 N/A
5:53 am 05:53 Cloudy with Light Rain 71 21.7 69 20.6 94 94 WSW 5 7 29.98 1015 10 16 0.00 0.00
6:04 am 06:04 Cloudy with Light Rain 71 21.7 69 20.6 94 94 SW 3 6 29.98 1015 10 16 0.01 0.25
6:43 am 06:43 Mostly Cloudy 70 21.1 69 20.6 97 97 SW 3 6 29.98 1015 10 16 0.01 0.25
6:53 am 06:53 Mostly Cloudy 71 21.7 69 20.6 94 94 VRB 5 7 29.98 1015 10 16 0.01 0.25
7:33 am 07:33 Partly Cloudy 71 21.7 69 20.6 94 94 W 3 6 29.98 1015 10 16 N/A
7:53 am 07:53 Sunny 71 21.7 69 20.6 94 94 N N/A 29.99 1016 10 16 N/A
8:35 am 08:35 Mostly Cloudy 72 22.2 69 20.6 91 91 VRB 3 6 30.01 1016 10 16 N/A
8:53 am 08:53 Cloudy 73 22.8 69 20.6 87 87 N N/A 30.02 1017 10 16 N/A
9:21 am 09:21 Mostly Cloudy 74 23.3 70 21.1 88 88 WSW 5 7 30.02 1017 10 16 N/A
9:48 am 09:48 Mostly Cloudy 75 24 70 21 83 83 N N/A 30.02 1016 10 16 N/A
9:53 am 09:53 Cloudy 76 24.4 70 21.1 82 82 W 3 6 30.02 1017 10 16 N/A
10:09 am 10:09 Mostly Cloudy 77 25 70 21.1 79 79 WSW 5 7 30.01 1016 10 16 N/A
10:18 am 10:18 Mostly Cloudy 78 25.6 71 21.7 79 79 VRB 3 6 30.01 1016 10 16 N/A
10:33 am 10:33 Mostly Cloudy 77 25 70 21.1 79 79 VRB 3 6 30.01 1016 10 16 N/A
10:53 am 10:53 Mostly Cloudy 79 26.1 71 21.7 77 77 VRB 5 7 30.03 1017 10 16 N/A
11:53 am 11:53 Cloudy 79 26.1 70 21.1 74 74 WNW 7 11 30.02 1017 10 16 N/A
12:30 pm 12:30 Mostly Cloudy 80 26.7 70 21.1 71 71 VRB 5 7 30.00 1016 10 16 N/A
12:53 pm 12:53 Partly Cloudy 82 27.8 70 21.1 67 67 WNW 7 11 30.01 1016 10 16 N/A
3:31 pm 15:31 Mostly Cloudy with Thunderstorms 79 26.1 70 21.1 74 74 ESE 8 13 29.96 1015 10 16 N/A
3:46 pm 15:46 Cloudy with Nearby Thunderstorms 76 24.4 69 20.6 79 79 VRB 3 6 29.96 1014 10 16 0.00 0.00
3:53 pm 15:53 Cloudy with Nearby Thunderstorms 77 25 69 20.6 77 77 VRB 5 7 29.97 1015 10 16 0.01 0.25
4:25 pm 16:25 Mostly Cloudy with Light Thunderstorms 73 22.8 67 19.4 81 81 VRB 3 6 29.97 1015 10 16 0.00 0.00
4:53 pm 16:53 Mostly Cloudy with Nearby Thunderstorms 71 21.7 66 18.9 84 84 N N/A 29.97 1015 10 16 0.00 0.00
5:18 pm 17:18 Mostly Sunny 71 21.7 67 19.4 87 87 VRB 3 6 29.97 1015 10 16 0.00 0.00
5:53 pm 17:53 Sunny 71 21.7 68 20 90 90 N N/A 29.99 1016 10 16 0.00 0.00
6:53 pm 18:53 Sunny 72 22.2 68 20 87 87 N N/A 29.98 1015 10 16 N/A
7:53 pm 19:53 Mostly Sunny 73 22.8 68 20 84 84 N N/A 29.98 1015 10 16 N/A
8:53 pm 20:53 Clear 71 21.7 68 20 90 90 N N/A 30.00 1016 10 16 N/A
9:53 pm 21:53 Clear 70 21.1 68 20 93 93 N N/A 30.02 1017 10 16 N/A
10:53 pm 22:53 Mostly Cloudy 69 20.6 68 20 96 96 N N/A 30.03 1017 10 16 N/A
11:53 pm 23:53 Mostly Clear 68 20 67 19.4 96 96 N N/A 30.03 1017 10 16 N/A

Powered by AerisWeather